FW3276 Weather Reports


time (UTC)temp
C
wind
direction
speed
KPH
gust
KPH
rain 1hr
cm
rain 24hr
cm
rain mn
cm
humidity
%
barometer
mb
20260506024602 19 213 0.0 6.4 0.00 0.00 0.00 35 1007.5
20260506023047 20 218 0.0 11.3 0.00 0.00 0.00 34 1007.6
20260506021555 20 225 1.6 14.5 0.00 0.00 0.00 33 1007.6
20260506020046 20 237 3.2 17.7 0.00 0.00 0.00 35 1007.6
20260506014546 20 184 4.8 14.5 0.00 0.00 0.00 36 1007.4
20260506013048 20 201 0.0 4.8 0.00 0.00 0.00 35 1007.3
20260506011609 21 172 4.8 12.9 0.00 0.00 0.00 34 1007.2
20260506010044 21 203 8.0 17.7 0.00 0.00 0.00 33 1006.9
20260506004546 21 171 8.0 17.7 0.00 0.00 0.00 33 1006.6
20260506003043 21 217 4.8 16.1 0.00 0.00 0.00 32 1006.6
20260506001543 22 176 3.2 17.7 0.00 0.00 0.00 31 1006.5
20260506000051 22 202 0.0 14.5 0.00 0.00 0.00 31 1006.3
20260505234541 22 203 4.8 14.5 0.00 0.00 0.00 28 1006.2
20260505233040 23 217 0.0 17.7 0.00 0.00 0.00 27 1006.1
20260505231542 23 262 11.3 25.7 0.00 0.00 0.00 26 1006.1
20260505230039 23 286 11.3 22.5 0.00 0.00 0.00 26 1006.0
20260505224538 23 226 8.0 33.8 0.00 0.00 0.00 26 1006.1
20260505223038 23 247 16.1 32.2 0.00 0.00 0.00 25 1005.8
20260505221541 23 235 11.3 22.5 0.00 0.00 0.00 26 1005.8
20260505220052 23 191 14.5 30.6 0.00 0.00 0.00 28 1005.9
20260505214539 23 238 11.3 30.6 0.00 0.00 0.00 28 1005.7
20260505213039 23 230 11.3 30.6 0.00 0.00 0.00 27 1005.8
20260505211539 23 142 14.5 35.4 0.00 0.00 0.00 26 1005.7
20260505210044 25 244 12.9 35.4 0.00 0.00 0.00 26 1005.5
20260505204533 25 170 12.9 32.2 0.00 0.00 0.00 23 1005.6
20260505203034 25 170 19.3 37.0 0.00 0.00 0.00 24 1005.6
20260505201533 25 254 11.3 33.8 0.00 0.00 0.00 27 1005.7
20260505200030 25 268 11.3 25.7 0.00 0.00 0.00 28 1005.7
20260505194529 25 164 11.3 25.7 0.00 0.00 0.00 23 1005.6
20260505193034 25 184 9.7 27.4 0.00 0.00 0.00 29 1006.0
20260505191526 24 180 9.7 32.2 0.00 0.00 0.00 27 1006.1
20260505190023 25 217 19.3 38.6 0.00 0.00 0.00 25 1006.4
20260505184521 25 227 9.7 32.2 0.00 0.00 0.00 29 1006.4
20260505183029 25 258 9.7 29.0 0.00 0.00 0.00 28 1006.7
20260505181519 25 155 12.9 32.2 0.00 0.00 0.00 27 1006.6
20260505180021 25 176 17.7 35.4 0.00 0.00 0.00 25 1006.9
20260505174515 25 263 9.7 29.0 0.00 0.00 0.00 29 1007.0
20260505173011 25 208 8.0 32.2 0.00 0.00 0.00 26 1007.1
20260505171510 24 189 6.4 35.4 0.00 0.00 0.00 32 1007.5
20260505170009 25 229 16.1 30.6 0.00 0.00 0.00 30 1007.4
20260505164506 24 228 14.5 30.6 0.00 0.00 0.00 32 1007.4
20260505163003 23 259 8.0 19.3 0.00 0.00 0.00 33 1007.8
20260505161601 23 263 9.7 25.7 0.00 0.00 0.00 36 1007.9
20260505153104 22 253 9.7 25.7 0.00 0.00 0.00 36 1008.4
20260505151544 22 161 12.9 24.1 0.00 0.00 0.00 37 1008.6
20260505124508 16 225 6.4 16.1 0.00 0.00 0.00 48 1009.1
20260505123006 15 190 1.6 11.3 0.00 0.00 0.00 49 1009.1
20260505121600 14 228 3.2 11.3 0.00 0.00 0.00 50 1009.1
20260505120106 13 239 3.2 11.3 0.00 0.00 0.00 50 1009.4
20260505114556 12 226 0.0 4.8 0.00 0.00 0.00 54 1009.3
20260505113112 12 225 1.6 8.0 0.00 0.00 0.00 54 1009.2
20260505111554 11 225 1.6 6.4 0.00 0.00 0.00 56 1009.2
20260505101546 11 234 1.6 11.3 0.00 0.00 0.00 56 1008.7
20260505100044 10 248 3.2 9.7 0.00 0.00 0.00 57 1008.7
20260505094543 11 275 0.0 4.8 0.00 0.00 0.00 55 1008.5
20260505093045 11 275 0.0 6.4 0.00 0.00 0.00 54 1008.2
20260505091543 11 275 1.6 9.7 0.00 0.00 0.00 54 1008.3
20260505090043 11 275 3.2 9.7 0.00 0.00 0.00 54 1008.2
20260505084547 11 247 1.6 9.7 0.00 0.00 0.00 56 1008.3
20260505083048 10 176 0.0 8.0 0.00 0.00 0.00 58 1008.2
20260505081543 10 270 4.8 9.7 0.00 0.00 0.00 57 1009.0
20260505080034 10 220 0.0 0.0 0.00 0.00 0.00 56 1008.8
20260505074533 11 220 0.0 0.0 0.00 0.00 0.00 55 1008.4
20260505073033 11 220 0.0 0.0 0.00 0.00 0.00 54 1008.3
20260505071529 11 220 0.0 0.0 0.00 0.00 0.00 52 1008.4
20260505070033 12 220 0.0 0.0 0.00 0.00 0.00 51 1008.5
20260505064522 12 220 0.0 0.0 0.00 0.00 0.00 50 1008.6
20260505063028 12 220 0.0 0.0 0.00 0.00 0.00 49 1008.7
20260505061522 12 220 0.0 0.0 0.00 0.00 0.00 49 1008.7
20260505060019 12 220 0.0 3.2 0.00 0.00 0.00 49 1008.9
20260505054518 12 219 0.0 3.2 0.00 0.00 0.00 49 1008.9
20260505053020 13 219 0.0 6.4 0.00 0.00 0.00 48 1008.9
20260505051518 13 218 0.0 4.8 0.00 0.00 0.00 46 1008.9
20260505041509 13 215 0.0 4.8 0.00 0.00 0.00 45 1008.7
20260505040006 13 209 0.0 11.3 0.00 0.00 0.00 44 1008.6
20260505034505 13 222 3.2 8.0 0.00 0.00 0.00 42 1008.6
20260505033005 14 209 1.6 8.0 0.00 0.00 0.00 42 1008.7
20260505031506 14 207 0.0 6.4 0.00 0.00 0.00 41 1008.8
20260505030004 14 252 0.0 1.6 0.00 0.00 0.00 40 1009.0